This is the latest recevied weather packets stored in our database for station/object DO7CRZ-12. If no packets are shown the sender has not sent any weather packets the latest 10 day(s).
| Time | Temp. | Humidity | Pressure | Rain* | Wind** | Luminosity | Snow |
|---|---|---|---|---|---|---|---|
| 1777735635 | 30.56° C | 14% | 1019 hPa | 0 mm | - | 208 W/m² | - |
| 1777735047 | 30° C | 14% | 1019.2 hPa | 0 mm | - | 231 W/m² | - |
| 1777733842 | 30.56° C | 15% | 1019.4 hPa | 0 mm | - | 283 W/m² | - |
| 1777733239 | 30° C | 16% | 1019.7 hPa | 0 mm | - | 304 W/m² | - |
| 1777732636 | 30° C | 17% | 1019.7 hPa | 0 mm | - | 327 W/m² | - |
| 1777732069 | 28.89° C | 17% | 1019.8 hPa | 0 mm | - | 336 W/m² | - |
| 1777731445 | 30° C | 16% | 1020 hPa | 0 mm | - | 350 W/m² | - |
| 1777730843 | 30.56° C | 15% | 1020.2 hPa | 0 mm | - | 368 W/m² | - |
| 1777730240 | 30° C | 16% | 1020.2 hPa | 0 mm | - | 384 W/m² | - |
| 1777729637 | 30° C | 17% | 1020.4 hPa | 0 mm | - | 400 W/m² | - |
| 1777729050 | 30° C | 16% | 1020.5 hPa | 0 mm | - | 416 W/m² | - |
| 1777728446 | 30.56° C | 16% | 1020.6 hPa | 0 mm | - | 433 W/m² | - |
| 1777727241 | 30.56° C | 16% | 1020.9 hPa | 0 mm | - | 489 W/m² | - |
| 1777726638 | 30.56° C | 16% | 1021 hPa | 0 mm | - | 552 W/m² | - |
| 1777726035 | 30.56° C | 15% | 1021.1 hPa | 0 mm | - | 567 W/m² | - |
| 1777725447 | 31.11° C | 15% | 1021.4 hPa | 0 mm | - | 588 W/m² | - |
| 1777724845 | 30° C | 16% | 1021.5 hPa | 0 mm | - | 597 W/m² | - |
| 1777724242 | 30.56° C | 15% | 1021.6 hPa | 0 mm | - | 617 W/m² | - |
| 1777723640 | 30.56° C | 16% | 1021.7 hPa | 0 mm | - | 637 W/m² | - |
| 1777723036 | 28.89° C | 17% | 1021.9 hPa | 0 mm | - | 643 W/m² | - |
| 1777722449 | 30.56° C | 17% | 1021.9 hPa | 0 mm | - | 661 W/m² | - |
| 1777721846 | 30.56° C | 16% | 1022.1 hPa | 0 mm | - | 671 W/m² | - |
| 1777721243 | 31.67° C | 15% | 1022.1 hPa | 0 mm | - | 685 W/m² | - |
| 1777720640 | 31.11° C | 15% | 1022.4 hPa | 0 mm | - | 691 W/m² | - |
| 1777720037 | 32.22° C | 15% | 1022.5 hPa | 0 mm | - | 706 W/m² | - |
* Rain latest hour (hover to see other rain measurements)
** Current wind speed in m/s (hover to see current wind gust speed)